Welcome to the New NWS' Forecast!
Most changes are behind the scenes, but click here for differences you might notice.

Regional Weather Roundup (RWR)

Issued by Gray - Portland, ME (GYX)

                            
000
ASUS41 KGYX 160805
RWRGYX
WEATHER ROUNDUP FOR MAINE AND NEW HAMPSHIRE
NATIONAL WEATHER SERVICE GRAY ME
300 AM EST FRI NOV 16 2018

MEZ002-005-006-010-012-015-018-020-021-024-026-027-029-160900-
MAINE
  
CITY           SKY/WX    TMP DP  RH WIND       PRES   REMARKS
PORTLAND       LGT SNOW  34  33  96 E22G31    30.01F FOG              
SANFORD        LGT SNOW  26  25  96 NE12      29.97F FOG     WCI  16  
BAR HARBOR     CLOUDY    29  19  66 NE9       30.13F                  
WISCASSET      SNOW      27  27 100 NE3       30.09F VSB 1/2          
ROCKLAND       LGT SNOW  32  30  92 E16G22    30.09F FOG              
FRYEBURG       LGT SNOW  22  19  89 N8        30.03F FOG              
LEWISTONAUBURN LGT SNOW  23  21  92 NE12      30.05F VSB 3/4 WCI  12  
AUGUSTA        LGT SNOW  23  21  92 NE9       30.10F FOG              
WATERVILLE     MOCLDY    25  12  58 MISG      30.09F                  
BANGOR         CLOUDY    26  10  50 NE7       30.16F                  
GREENVILLE       N/A     18   7  62 SE6       30.05F                  
MILLINOCKET    CLOUDY    20  14  77 NE3       30.19F                  
HOULTON        FAIR      19  11  70 SE7       30.20F                  
PRESQUE ISLE   FAIR      13  10  88 NE6       30.20F                  
FRENCHVILLE    FAIR      15   5  64 E8        30.14F                  
CARIBOU        FAIR      14   7  73 E5        30.19F                  
$$

NHZ002-005-008-009-011-012-014-160900-
NEW HAMPSHIRE
  
CITY           SKY/WX    TMP DP  RH WIND       PRES   REMARKS
PORTSMOUTH     LGT SNOW  33  32  96 E14G22    29.93F FOG              
ROCHESTER      LGT SNOW  27  26  96 NE7       29.95F VSB 1            
NASHUA         LGT SNOW  32  32 100 E9        29.91F FOG              
MANCHESTER     LGTSLEET  32  30  92 NE7       29.90F VSB 3/4          
CONCORD        LGT SNOW  26  24  92 N7        29.94F VSB 1            
LACONIA        LGT SNOW  25  22  88 NE12      29.96F VSB 3/4 WCI  14  
PLYMOUTH       LGT SNOW  25  22  91 CALM      29.97F                  
BERLIN         LGT SNOW  20  17  88 N6        29.99F FOG              
WHITEFIELD     FLURRIES  23  18  81 E7        29.93F                  
JAFFREY        LGT SNOW  29  28  96 NE9G17    29.81F VSB 3/4          
KEENE          LGT SNOW  29  26  89 N9G16     29.84F FOG              
LEBANON        LGT SNOW  25  20  81 N6        29.92F                  
MT WASHINGTON  SNOW       7   7 100 SE45        N/A  VSB 0   WCI -20  
$$

VTZ005-007-008-160900-
VERMONT
  
CITY           SKY/WX    TMP DP  RH WIND       PRES   REMARKS
ST JOHNSBURY     N/A     20  19  96 MISG      29.95F                  
MONTPELIER     LGT SNOW  19  18  95 CALM      29.96F VSB 1            
BURLINGTON     LGT SNOW  25  22  88 SE14      29.95F VSB 3/4 WCI  13  
$$

MAZ007-012-024-CTZ003-RIZ002-NYZ038-NYZ072-160900-
SOUTHERN NEW ENGLAND AND NY
  
CITY           SKY/WX    TMP DP  RH WIND       PRES   REMARKS
BOSTON         LGT RAIN  39  35  86 E32G40    29.86F FOG              
WORCESTER      MIX PCPN  30  30 100 E17G31    29.78F FOG     WCI  18  
NANTUCKET      HVY RAIN  43  41  93 E29G40    29.76F FOG              
PROVIDENCE     LGT RAIN  35  34  96 NE13      29.80F                  
HARTFORD       LGTSLEET  32  30  92 N14       29.75F FOG              
ALBANY         LGT SNOW  27  23  85 N10       29.81F FOG     WCI  17  
NEW YORK CITY  CLOUDY    41  38  89 E25       29.58F                  
$$

ANZ081-ANZ082-ANZ150-NHZ014-MEZ023>029-160900-
COASTAL MARINE OBSERVATIONS
  
STATION/POSITION TIME  TEMP    WIND        PRES    WAVE
                       AIR SEA DIR/SP/G            HT/PER
                 (UTC) (F)     (DEG/KT/KT) (MB)    (FT/S)
MOUNT DESERT ROC 0800   32      70/ 28/ 29 1019.1F
MATINICUS ROCK   0700   33      90/ 25/ 28 1020.2F
ISLE OF SHOALS   0700   36      80/ 32/ 35 1014.5F
$$

.............KEY..............
   WCI - WIND CHILL
   TC  - TEMPERATURE IN CELSIUS
   VSB - VISIBILITY IN MILES
   HX  - HEAT INDEX
   FAIR- INDICATES FEW OR NO CLOUDS BELOW 12,000 FT, WITH NO 
         SIGNIFICANT WEATHER AND/OR OBSTRUCTIONS TO VISIBILITY.